| time (UTC) | temp F | wind direction | speed MPH | gust MPH | rain 1hr in | rain 24hr in | rain mn in | humidity % | barometer mb |
| 20260902225537 | 65 | 212 | 2.0 | 5.0 | 0.00 | 0.00 | 0.00 | 83 | 1016.5 |
| 20260902225036 | 65 | 234 | 2.0 | 6.0 | 0.00 | 0.00 | 0.00 | 82 | 1016.6 |
| 20260902224551 | 65 | 211 | 3.0 | 6.0 | 0.00 | 0.00 | 0.00 | 82 | 1016.6 |
| 20260902224038 | 65 | 224 | 3.0 | 7.0 | 0.00 | 0.00 | 0.00 | 81 | 1016.6 |
| 20260902223537 | 65 | 232 | 3.0 | 7.0 | 0.00 | 0.00 | 0.00 | 81 | 1016.5 |
| 20260902223047 | 66 | 237 | 3.0 | 7.0 | 0.00 | 0.00 | 0.00 | 82 | 1016.5 |
| 20260902222537 | 66 | 217 | 3.0 | 7.0 | 0.00 | 0.00 | 0.00 | 80 | 1016.5 |
| 20260902222036 | 65 | 247 | 3.0 | 6.0 | 0.00 | 0.00 | 0.00 | 82 | 1016.5 |
| 20260902221556 | 65 | 235 | 3.0 | 7.0 | 0.00 | 0.00 | 0.00 | 81 | 1016.5 |
| 20260902221036 | 65 | 238 | 4.0 | 7.0 | 0.00 | 0.00 | 0.00 | 82 | 1016.5 |
| 20260902220537 | 65 | 242 | 4.0 | 7.0 | 0.00 | 0.00 | 0.00 | 82 | 1016.6 |
| 20260902220054 | 65 | 224 | 4.0 | 7.0 | 0.00 | 0.00 | 0.00 | 82 | 1016.6 |
| 20260902215537 | 65 | 215 | 3.0 | 7.0 | 0.00 | 0.00 | 0.00 | 82 | 1016.6 |
| 20260902215037 | 65 | 199 | 3.0 | 6.0 | 0.00 | 0.00 | 0.00 | 82 | 1016.7 |
| 20260902214553 | 65 | 173 | 4.0 | 7.0 | 0.00 | 0.00 | 0.00 | 82 | 1016.8 |
| 20260902214038 | 65 | 198 | 3.0 | 7.0 | 0.00 | 0.00 | 0.00 | 82 | 1016.8 |
| 20260902213542 | 65 | 215 | 4.0 | 7.0 | 0.00 | 0.00 | 0.00 | 82 | 1016.8 |
| 20260902213058 | 66 | 261 | 3.0 | 6.0 | 0.00 | 0.00 | 0.00 | 81 | 1016.9 |
| 20260902212537 | 66 | 223 | 3.0 | 6.0 | 0.00 | 0.00 | 0.00 | 82 | 1016.9 |
| 20260902212037 | 66 | 192 | 3.0 | 6.0 | 0.00 | 0.00 | 0.00 | 82 | 1017.0 |
| 20260902211610 | 65 | 217 | 3.0 | 6.0 | 0.00 | 0.00 | 0.00 | 81 | 1016.9 |
| 20260902211037 | 66 | 223 | 3.0 | 6.0 | 0.00 | 0.00 | 0.00 | 81 | 1016.8 |
| 20260902210536 | 66 | 214 | 3.0 | 6.0 | 0.00 | 0.00 | 0.00 | 82 | 1016.8 |
| 20260902210119 | 65 | 203 | 3.0 | 6.0 | 0.00 | 0.00 | 0.00 | 82 | 1016.8 |
| 20260902205538 | 65 | 225 | 3.0 | 6.0 | 0.00 | 0.00 | 0.00 | 83 | 1016.7 |
| 20260902205042 | 65 | 217 | 3.0 | 6.0 | 0.00 | 0.00 | 0.00 | 84 | 1016.7 |
| 20260902204551 | 64 | 219 | 3.0 | 7.0 | 0.00 | 0.00 | 0.00 | 84 | 1016.7 |
| 20260902204040 | 64 | 223 | 4.0 | 7.0 | 0.00 | 0.00 | 0.00 | 84 | 1016.7 |
| 20260902203536 | 64 | 223 | 3.0 | 7.0 | 0.00 | 0.00 | 0.00 | 84 | 1016.8 |
| 20260902203046 | 65 | 204 | 3.0 | 8.0 | 0.00 | 0.00 | 0.00 | 83 | 1016.7 |
| 20260902202537 | 64 | 238 | 4.0 | 8.0 | 0.00 | 0.00 | 0.00 | 84 | 1016.8 |
| 20260902202036 | 65 | 213 | 4.0 | 8.0 | 0.00 | 0.00 | 0.00 | 83 | 1016.7 |
| 20260902201608 | 65 | 249 | 4.0 | 8.0 | 0.00 | 0.00 | 0.00 | 84 | 1016.8 |
| 20260902201037 | 65 | 221 | 3.0 | 7.0 | 0.00 | 0.00 | 0.00 | 83 | 1016.8 |
| 20260902200536 | 65 | 221 | 3.0 | 7.0 | 0.00 | 0.00 | 0.00 | 82 | 1017.0 |
| 20260902200050 | 66 | 204 | 3.0 | 6.0 | 0.00 | 0.00 | 0.00 | 83 | 1017.0 |
| 20260902195538 | 66 | 200 | 2.0 | 8.0 | 0.00 | 0.00 | 0.00 | 83 | 1016.9 |
| 20260902195036 | 66 | 186 | 2.0 | 8.0 | 0.00 | 0.00 | 0.00 | 84 | 1016.8 |
| 20260902194551 | 65 | 190 | 4.0 | 8.0 | 0.00 | 0.00 | 0.00 | 85 | 1016.9 |
| 20260902194040 | 64 | 223 | 3.0 | 8.0 | 0.00 | 0.00 | 0.00 | 88 | 1016.9 |
| 20260902193537 | 63 | 194 | 3.0 | 6.0 | 0.00 | 0.00 | 0.00 | 88 | 1017.0 |
| 20260902193058 | 63 | 222 | 3.0 | 6.0 | 0.00 | 0.00 | 0.00 | 88 | 1017.1 |
| 20260902192537 | 63 | 227 | 3.0 | 6.0 | 0.00 | 0.00 | 0.00 | 89 | 1017.1 |
| 20260902192036 | 62 | 220 | 3.0 | 6.0 | 0.00 | 0.00 | 0.00 | 89 | 1017.1 |
| 20260902191601 | 62 | 223 | 3.0 | 7.0 | 0.00 | 0.00 | 0.00 | 89 | 1017.2 |
| 20260902191037 | 62 | 205 | 3.0 | 8.0 | 0.00 | 0.00 | 0.00 | 89 | 1017.1 |
| 20260902190537 | 62 | 236 | 4.0 | 8.0 | 0.00 | 0.00 | 0.00 | 89 | 1017.1 |
| 20260902190054 | 62 | 213 | 4.0 | 7.0 | 0.00 | 0.00 | 0.00 | 90 | 1017.1 |
| 20260902185538 | 62 | 231 | 3.0 | 7.0 | 0.00 | 0.00 | 0.00 | 90 | 1017.0 |
| 20260902185037 | 62 | 252 | 3.0 | 7.0 | 0.00 | 0.00 | 0.00 | 90 | 1017.0 |
| 20260902184549 | 62 | 234 | 3.0 | 7.0 | 0.00 | 0.00 | 0.00 | 91 | 1016.9 |
| 20260902184041 | 62 | 215 | 3.0 | 7.0 | 0.00 | 0.00 | 0.00 | 90 | 1016.9 |
| 20260902183539 | 62 | 236 | 3.0 | 7.0 | 0.00 | 0.00 | 0.00 | 89 | 1016.8 |
| 20260902183058 | 63 | 234 | 4.0 | 8.0 | 0.00 | 0.00 | 0.00 | 89 | 1016.9 |
| 20260902182537 | 63 | 203 | 4.0 | 9.0 | 0.00 | 0.00 | 0.00 | 88 | 1016.8 |
| 20260902182045 | 64 | 196 | 5.0 | 9.0 | 0.00 | 0.00 | 0.00 | 86 | 1016.7 |
| 20260902181605 | 64 | 223 | 3.0 | 7.0 | 0.00 | 0.00 | 0.00 | 85 | 1016.7 |
| 20260902181038 | 65 | 216 | 3.0 | 7.0 | 0.00 | 0.00 | 0.00 | 84 | 1016.7 |
| 20260902180536 | 65 | 192 | 2.0 | 7.0 | 0.00 | 0.00 | 0.00 | 84 | 1016.7 |
| 20260902180114 | 64 | 221 | 2.0 | 7.0 | 0.00 | 0.00 | 0.00 | 84 | 1016.7 |
| 20260902175537 | 65 | 160 | 2.0 | 6.0 | 0.00 | 0.00 | 0.00 | 84 | 1016.6 |
| 20260902175035 | 65 | 218 | 2.0 | 10.0 | 0.00 | 0.00 | 0.00 | 84 | 1016.5 |
| 20260902174555 | 64 | 207 | 4.0 | 10.0 | 0.00 | 0.00 | 0.00 | 85 | 1016.5 |
| 20260902174036 | 64 | 205 | 4.0 | 11.0 | 0.00 | 0.00 | 0.00 | 85 | 1016.4 |
| 20260902173537 | 64 | 200 | 5.0 | 12.0 | 0.00 | 0.00 | 0.00 | 84 | 1016.2 |
| 20260902173050 | 65 | 200 | 6.0 | 13.0 | 0.00 | 0.00 | 0.00 | 84 | 1016.1 |
| 20260902172537 | 65 | 225 | 3.0 | 13.0 | 0.00 | 0.00 | 0.00 | 84 | 1016.1 |
| 20260902172037 | 65 | 193 | 7.0 | 12.0 | 0.00 | 0.00 | 0.00 | 82 | 1016.0 |
| 20260902171558 | 65 | 202 | 6.0 | 13.0 | 0.00 | 0.00 | 0.00 | 82 | 1016.0 |
| 20260902171038 | 65 | 190 | 7.0 | 13.0 | 0.00 | 0.00 | 0.00 | 83 | 1016.0 |
| 20260902170536 | 65 | 194 | 4.0 | 10.0 | 0.00 | 0.00 | 0.00 | 82 | 1016.0 |
| 20260902170055 | 65 | 212 | 5.0 | 11.0 | 0.00 | 0.00 | 0.00 | 83 | 1015.9 |
| 20260902165536 | 64 | 183 | 6.0 | 11.0 | 0.00 | 0.00 | 0.00 | 83 | 1016.0 |
| 20260902165035 | 64 | 184 | 6.0 | 15.0 | 0.00 | 0.00 | 0.00 | 84 | 1015.9 |
| 20260902164553 | 64 | 213 | 5.0 | 15.0 | 0.00 | 0.00 | 0.00 | 84 | 1015.8 |
| 20260902164037 | 64 | 188 | 6.0 | 14.0 | 0.00 | 0.00 | 0.00 | 84 | 1015.8 |
| 20260902163537 | 64 | 190 | 5.0 | 13.0 | 0.00 | 0.00 | 0.00 | 85 | 1015.8 |
| 20260902163046 | 64 | 207 | 7.0 | 14.0 | 0.00 | 0.00 | 0.00 | 85 | 1015.7 |
| 20260902162536 | 64 | 201 | 5.0 | 14.0 | 0.00 | 0.00 | 0.00 | 84 | 1015.8 |
| 20260902162038 | 64 | 201 | 5.0 | 13.0 | 0.00 | 0.00 | 0.00 | 85 | 1015.8 |
| 20260902161556 | 64 | 181 | 6.0 | 13.0 | 0.00 | 0.00 | 0.00 | 84 | 1015.8 |
| 20260902161038 | 64 | 212 | 6.0 | 10.0 | 0.00 | 0.00 | 0.00 | 84 | 1015.8 |
| 20260902160537 | 64 | 170 | 4.0 | 8.0 | 0.00 | 0.00 | 0.00 | 84 | 1015.8 |
| 20260902160054 | 64 | 215 | 3.0 | 9.0 | 0.00 | 0.00 | 0.00 | 84 | 1015.7 |
| 20260902155536 | 63 | 161 | 3.0 | 12.0 | 0.00 | 0.00 | 0.00 | 84 | 1015.7 |
| 20260902155036 | 63 | 194 | 5.0 | 12.0 | 0.00 | 0.00 | 0.00 | 84 | 1015.7 |
| 20260902154550 | 64 | 231 | 7.0 | 10.0 | 0.00 | 0.00 | 0.00 | 83 | 1015.7 |
| 20260902154037 | 64 | 202 | 3.0 | 8.0 | 0.00 | 0.00 | 0.00 | 83 | 1015.8 |
| 20260902153536 | 64 | 213 | 1.0 | 8.0 | 0.00 | 0.00 | 0.00 | 83 | 1015.9 |
| 20260902153055 | 63 | 196 | 4.0 | 8.0 | 0.00 | 0.00 | 0.00 | 83 | 1015.8 |
| 20260902152536 | 63 | 148 | 3.0 | 6.0 | 0.00 | 0.00 | 0.00 | 83 | 1015.8 |
| 20260902152036 | 63 | 189 | 1.0 | 7.0 | 0.00 | 0.00 | 0.00 | 82 | 1015.8 |
| 20260902151559 | 62 | 207 | 2.0 | 7.0 | 0.00 | 0.00 | 0.00 | 82 | 1015.8 |
| 20260902151035 | 62 | 192 | 3.0 | 6.0 | 0.00 | 0.00 | 0.00 | 82 | 1015.7 |
| 20260902150541 | 62 | 188 | 1.0 | 7.0 | 0.00 | 0.00 | 0.00 | 82 | 1015.6 |
| 20260902150051 | 62 | 160 | 1.0 | 7.0 | 0.00 | 0.00 | 0.00 | 82 | 1015.5 |
| 20260902145539 | 62 | 227 | 3.0 | 7.0 | 0.00 | 0.00 | 0.00 | 82 | 1015.4 |
| 20260902145038 | 62 | 198 | 3.0 | 7.0 | 0.00 | 0.00 | 0.00 | 83 | 1015.4 |
| 20260902144610 | 62 | 186 | 3.0 | 9.0 | 0.00 | 0.00 | 0.00 | 83 | 1015.2 |
| 20260902144041 | 62 | 152 | 4.0 | 9.0 | 0.00 | 0.00 | 0.00 | 84 | 1015.1 |
| 20260902143538 | 62 | 219 | 3.0 | 9.0 | 0.00 | 0.00 | 0.00 | 84 | 1015.0 |
| 20260902143056 | 61 | 172 | 3.0 | 7.0 | 0.00 | 0.00 | 0.00 | 85 | 1015.0 |
| 20260902142539 | 61 | 161 | 2.0 | 5.0 | 0.00 | 0.00 | 0.00 | 85 | 1015.0 |
| 20260902142042 | 61 | 0 | 1.0 | 5.0 | 0.00 | 0.00 | 0.00 | 85 | 1015.0 |
| 20260902141550 | 62 | 128 | 2.0 | 5.0 | 0.00 | 0.00 | 0.00 | 84 | 1015.1 |
| 20260902141038 | 62 | 0 | 1.0 | 4.0 | 0.00 | 0.00 | 0.00 | 84 | 1015.1 |
| 20260902140538 | 62 | 0 | 1.0 | 5.0 | 0.00 | 0.00 | 0.00 | 84 | 1015.1 |
| 20260902140055 | 62 | 186 | 2.0 | 5.0 | 0.00 | 0.00 | 0.00 | 84 | 1015.1 |
| 20260902135540 | 61 | 154 | 2.0 | 5.0 | 0.00 | 0.00 | 0.00 | 84 | 1015.1 |
| 20260902135039 | 61 | 184 | 2.0 | 5.0 | 0.00 | 0.00 | 0.00 | 84 | 1015.0 |
| 20260902134559 | 61 | 190 | 2.0 | 7.0 | 0.00 | 0.00 | 0.00 | 84 | 1015.0 |
| 20260902134038 | 62 | 192 | 3.0 | 8.0 | 0.00 | 0.00 | 0.00 | 83 | 1015.0 |
| 20260902133539 | 62 | 200 | 3.0 | 8.0 | 0.00 | 0.00 | 0.00 | 83 | 1015.0 |
| 20260902133054 | 62 | 226 | 3.0 | 8.0 | 0.00 | 0.00 | 0.00 | 83 | 1015.0 |
| 20260902132538 | 62 | 165 | 3.0 | 7.0 | 0.00 | 0.00 | 0.00 | 84 | 1014.9 |
| 20260902132038 | 62 | 151 | 2.0 | 7.0 | 0.00 | 0.00 | 0.00 | 84 | 1014.9 |
| 20260902131555 | 62 | 145 | 2.0 | 7.0 | 0.00 | 0.00 | 0.00 | 84 | 1014.9 |
| 20260902131038 | 62 | 211 | 1.0 | 4.0 | 0.00 | 0.00 | 0.00 | 84 | 1014.9 |
| 20260902130539 | 61 | 190 | 1.0 | 4.0 | 0.00 | 0.00 | 0.00 | 84 | 1014.9 |
| 20260902130057 | 61 | 150 | 1.0 | 2.0 | 0.00 | 0.00 | 0.00 | 85 | 1014.8 |
| 20260902125539 | 61 | 0 | 0.0 | 2.0 | 0.00 | 0.00 | 0.00 | 85 | 1014.9 |
| 20260902125038 | 61 | 150 | 0.0 | 2.0 | 0.00 | 0.00 | 0.00 | 85 | 1014.9 |
| 20260902124558 | 61 | 150 | 0.0 | 2.0 | 0.00 | 0.00 | 0.00 | 85 | 1014.8 |
| 20260902124038 | 61 | 0 | 0.0 | 3.0 | 0.00 | 0.00 | 0.00 | 85 | 1014.8 |
| 20260902123537 | 61 | 150 | 0.0 | 3.0 | 0.00 | 0.00 | 0.00 | 85 | 1014.8 |
| 20260902123054 | 61 | 0 | 0.0 | 2.0 | 0.00 | 0.00 | 0.00 | 85 | 1014.7 |
| 20260902122539 | 61 | 150 | 0.0 | 2.0 | 0.00 | 0.00 | 0.00 | 85 | 1014.7 |
| 20260902122040 | 61 | 0 | 0.0 | 2.0 | 0.00 | 0.00 | 0.00 | 85 | 1014.6 |
| 20260902121601 | 61 | 0 | 0.0 | 2.0 | 0.00 | 0.00 | 0.00 | 85 | 1014.7 |
| 20260902121038 | 61 | 0 | 0.0 | 2.0 | 0.00 | 0.00 | 0.00 | 85 | 1014.7 |
| 20260902120538 | 61 | 148 | 0.0 | 3.0 | 0.00 | 0.00 | 0.00 | 85 | 1014.8 |
| 20260902120133 | 61 | 0 | 1.0 | 7.0 | 0.00 | 0.00 | 0.00 | 85 | 1014.9 |
| 20260902115533 | 61 | 173 | 1.0 | 7.0 | 0.00 | 0.00 | 0.00 | 84 | 1014.8 |
| 20260902115036 | 61 | 173 | 1.0 | 7.0 | 0.00 | 0.00 | 0.00 | 84 | 1014.7 |
| 20260902114549 | 61 | 157 | 0.0 | 4.0 | 0.00 | 0.00 | 0.00 | 84 | 1014.6 |
| 20260902114036 | 61 | 90 | 0.0 | 4.0 | 0.00 | 0.00 | 0.00 | 84 | 1014.6 |
| 20260902113536 | 60 | 161 | 0.0 | 4.0 | 0.00 | 0.00 | 0.00 | 84 | 1014.6 |
| 20260902113056 | 60 | 184 | 0.0 | 5.0 | 0.00 | 0.00 | 0.00 | 84 | 1014.7 |
| 20260902112534 | 61 | 184 | 1.0 | 5.0 | 0.00 | 0.00 | 0.00 | 83 | 1014.7 |
| 20260902112033 | 61 | 150 | 0.0 | 2.0 | 0.00 | 0.00 | 0.00 | 83 | 1014.9 |
| 20260902111551 | 61 | 150 | 0.0 | 2.0 | 0.00 | 0.00 | 0.00 | 83 | 1014.8 |
| 20260902111033 | 61 | 168 | 0.0 | 2.0 | 0.00 | 0.00 | 0.00 | 83 | 1014.8 |
| 20260902110534 | 61 | 0 | 0.0 | 2.0 | 0.00 | 0.00 | 0.00 | 83 | 1014.9 |
| 20260902110054 | 61 | 168 | 1.0 | 2.0 | 0.00 | 0.00 | 0.00 | 83 | 1014.9 |
| 20260902105534 | 61 | 142 | 0.0 | 2.0 | 0.00 | 0.00 | 0.00 | 84 | 1014.9 |
| 20260902105034 | 61 | 142 | 1.0 | 5.0 | 0.00 | 0.00 | 0.00 | 84 | 1014.9 |
| 20260902104557 | 61 | 142 | 1.0 | 5.0 | 0.00 | 0.00 | 0.00 | 84 | 1014.9 |
| 20260902104035 | 61 | 142 | 1.0 | 5.0 | 0.00 | 0.00 | 0.00 | 84 | 1014.9 |
| 20260902103536 | 61 | 134 | 1.0 | 3.0 | 0.00 | 0.00 | 0.00 | 84 | 1014.9 |
| 20260902103054 | 61 | 155 | 0.0 | 5.0 | 0.00 | 0.00 | 0.00 | 84 | 1014.9 |
| 20260902102536 | 61 | 0 | 2.0 | 5.0 | 0.00 | 0.00 | 0.00 | 84 | 1014.8 |
| 20260902102037 | 61 | 166 | 1.0 | 5.0 | 0.00 | 0.00 | 0.00 | 84 | 1014.7 |
| 20260902101550 | 60 | 157 | 1.0 | 5.0 | 0.00 | 0.00 | 0.00 | 85 | 1014.8 |
| 20260902101036 | 60 | 148 | 1.0 | 5.0 | 0.00 | 0.00 | 0.00 | 85 | 1014.7 |
| 20260902100536 | 60 | 0 | 1.0 | 5.0 | 0.00 | 0.00 | 0.00 | 84 | 1014.7 |
| 20260902100054 | 60 | 147 | 2.0 | 5.0 | 0.00 | 0.00 | 0.00 | 85 | 1014.8 |
| 20260902095536 | 60 | 163 | 1.0 | 7.0 | 0.00 | 0.00 | 0.00 | 85 | 1014.9 |
| 20260902095036 | 60 | 163 | 2.0 | 7.0 | 0.00 | 0.00 | 0.00 | 85 | 1014.8 |
| 20260902094546 | 60 | 198 | 1.0 | 9.0 | 0.00 | 0.00 | 0.00 | 85 | 1014.9 |
| 20260902094036 | 60 | 180 | 2.0 | 9.0 | 0.00 | 0.00 | 0.00 | 85 | 1014.9 |
| 20260902093539 | 60 | 183 | 3.0 | 6.0 | 0.00 | 0.00 | 0.00 | 85 | 1014.9 |
| 20260902093053 | 60 | 156 | 2.0 | 7.0 | 0.00 | 0.00 | 0.00 | 85 | 1014.9 |
| 20260902092536 | 60 | 153 | 2.0 | 7.0 | 0.00 | 0.00 | 0.00 | 85 | 1015.0 |
| 20260902092037 | 60 | 175 | 3.0 | 7.0 | 0.00 | 0.00 | 0.00 | 85 | 1015.0 |
| 20260902091557 | 60 | 176 | 2.0 | 7.0 | 0.00 | 0.00 | 0.00 | 85 | 1015.0 |
| 20260902091036 | 60 | 182 | 2.0 | 5.0 | 0.00 | 0.00 | 0.00 | 85 | 1015.0 |
| 20260902090536 | 60 | 178 | 1.0 | 5.0 | 0.00 | 0.00 | 0.00 | 85 | 1015.0 |
| 20260902090055 | 60 | 180 | 2.0 | 5.0 | 0.00 | 0.00 | 0.00 | 85 | 1015.1 |
| 20260902085537 | 60 | 157 | 2.0 | 5.0 | 0.00 | 0.00 | 0.00 | 85 | 1015.0 |
| 20260902085036 | 60 | 179 | 1.0 | 5.0 | 0.00 | 0.00 | 0.00 | 85 | 1015.1 |
| 20260902084552 | 60 | 184 | 1.0 | 4.0 | 0.00 | 0.00 | 0.00 | 86 | 1015.1 |
| 20260902084039 | 60 | 190 | 1.0 | 4.0 | 0.00 | 0.00 | 0.00 | 86 | 1015.1 |
| 20260902083538 | 60 | 150 | 1.0 | 4.0 | 0.00 | 0.00 | 0.00 | 86 | 1015.2 |
| 20260902083054 | 60 | 0 | 0.0 | 4.0 | 0.00 | 0.00 | 0.00 | 85 | 1015.2 |
| 20260902082538 | 60 | 158 | 1.0 | 4.0 | 0.00 | 0.00 | 0.00 | 86 | 1015.3 |
| 20260902082039 | 60 | 0 | 0.0 | 4.0 | 0.00 | 0.00 | 0.00 | 85 | 1015.3 |
| 20260902081558 | 60 | 0 | 1.0 | 6.0 | 0.00 | 0.00 | 0.00 | 86 | 1015.3 |
| 20260902081036 | 60 | 198 | 1.0 | 6.0 | 0.00 | 0.00 | 0.00 | 86 | 1015.2 |
| 20260902080538 | 60 | 161 | 3.0 | 6.0 | 0.00 | 0.00 | 0.00 | 86 | 1015.3 |
| 20260902080111 | 60 | 193 | 2.0 | 5.0 | 0.00 | 0.00 | 0.00 | 87 | 1015.3 |
| 20260902075542 | 60 | 214 | 0.0 | 4.0 | 0.00 | 0.00 | 0.00 | 86 | 1015.2 |
| 20260902075037 | 60 | 0 | 0.0 | 5.0 | 0.00 | 0.00 | 0.00 | 86 | 1015.2 |
| 20260902074552 | 60 | 195 | 2.0 | 5.0 | 0.00 | 0.00 | 0.00 | 86 | 1015.2 |
| 20260902074037 | 60 | 188 | 1.0 | 4.0 | 0.00 | 0.00 | 0.00 | 86 | 1015.1 |
| 20260902073538 | 60 | 180 | 1.0 | 3.0 | 0.00 | 0.00 | 0.00 | 86 | 1015.1 |
| 20260902073051 | 60 | 0 | 1.0 | 3.0 | 0.00 | 0.00 | 0.00 | 86 | 1015.1 |
| 20260902072538 | 60 | 189 | 0.0 | 3.0 | 0.00 | 0.00 | 0.00 | 87 | 1015.2 |
| 20260902072042 | 60 | 0 | 1.0 | 5.0 | 0.00 | 0.00 | 0.00 | 87 | 1015.2 |
| 20260902071553 | 60 | 0 | 1.0 | 5.0 | 0.00 | 0.00 | 0.00 | 87 | 1015.2 |
| 20260902071041 | 60 | 196 | 1.0 | 4.0 | 0.00 | 0.00 | 0.00 | 87 | 1015.3 |
| 20260902070537 | 60 | 154 | 0.0 | 3.0 | 0.00 | 0.00 | 0.00 | 87 | 1015.3 |
| 20260902070057 | 60 | 154 | 0.0 | 3.0 | 0.00 | 0.00 | 0.00 | 87 | 1015.2 |
| 20260902065538 | 60 | 198 | 1.0 | 5.0 | 0.00 | 0.00 | 0.00 | 87 | 1015.3 |
| 20260902065037 | 60 | 182 | 2.0 | 7.0 | 0.00 | 0.00 | 0.00 | 87 | 1015.2 |
| 20260902064605 | 60 | 180 | 3.0 | 7.0 | 0.00 | 0.00 | 0.00 | 87 | 1015.2 |
| 20260902064038 | 60 | 189 | 1.0 | 4.0 | 0.00 | 0.00 | 0.00 | 87 | 1015.3 |
| 20260902063538 | 60 | 187 | 1.0 | 4.0 | 0.00 | 0.00 | 0.00 | 87 | 1015.3 |
| 20260902063048 | 60 | 180 | 0.0 | 3.0 | 0.00 | 0.00 | 0.00 | 87 | 1015.2 |
| 20260902062539 | 60 | 180 | 0.0 | 3.0 | 0.00 | 0.00 | 0.00 | 87 | 1015.3 |
| 20260902062039 | 60 | 186 | 1.0 | 3.0 | 0.00 | 0.00 | 0.00 | 88 | 1015.3 |
| 20260902061559 | 60 | 184 | 0.0 | 2.0 | 0.00 | 0.00 | 0.00 | 88 | 1015.3 |
| 20260902061038 | 60 | 184 | 0.0 | 2.0 | 0.00 | 0.00 | 0.00 | 88 | 1015.4 |
| 20260902060537 | 60 | 184 | 1.0 | 2.0 | 0.00 | 0.00 | 0.00 | 88 | 1015.3 |
| 20260902060055 | 59 | 184 | 0.0 | 2.0 | 0.00 | 0.00 | 0.00 | 88 | 1015.4 |
| 20260902055536 | 59 | 184 | 0.0 | 1.0 | 0.00 | 0.00 | 0.00 | 88 | 1015.4 |
| 20260902055039 | 59 | 0 | 0.0 | 2.0 | 0.00 | 0.00 | 0.00 | 88 | 1015.4 |
| 20260902054551 | 59 | 0 | 0.0 | 2.0 | 0.00 | 0.00 | 0.00 | 88 | 1015.4 |
| 20260902054038 | 60 | 184 | 0.0 | 2.0 | 0.00 | 0.00 | 0.00 | 88 | 1015.4 |
| 20260902053538 | 60 | 0 | 0.0 | 2.0 | 0.00 | 0.00 | 0.00 | 88 | 1015.4 |
| 20260902053120 | 60 | 184 | 0.0 | 2.0 | 0.00 | 0.00 | 0.00 | 88 | 1015.3 |
| 20260902052537 | 60 | 0 | 1.0 | 2.0 | 0.00 | 0.00 | 0.00 | 88 | 1015.3 |
| 20260902052037 | 59 | 184 | 0.0 | 2.0 | 0.00 | 0.00 | 0.00 | 88 | 1015.4 |
| 20260902051555 | 60 | 0 | 0.0 | 2.0 | 0.00 | 0.00 | 0.00 | 88 | 1015.5 |
| 20260902051039 | 60 | 184 | 0.0 | 2.0 | 0.00 | 0.00 | 0.00 | 88 | 1015.4 |
| 20260902050538 | 60 | 184 | 0.0 | 2.0 | 0.00 | 0.00 | 0.00 | 88 | 1015.5 |
| 20260902050055 | 60 | 0 | 0.0 | 2.0 | 0.00 | 0.00 | 0.00 | 88 | 1015.5 |
| 20260902045540 | 60 | 184 | 0.0 | 2.0 | 0.00 | 0.00 | 0.00 | 88 | 1015.5 |
| 20260902045037 | 60 | 184 | 0.0 | 2.0 | 0.00 | 0.00 | 0.00 | 88 | 1015.6 |
| 20260902044552 | 60 | 184 | 0.0 | 4.0 | 0.00 | 0.00 | 0.00 | 88 | 1015.5 |
| 20260902044039 | 60 | 184 | 1.0 | 4.0 | 0.00 | 0.00 | 0.00 | 88 | 1015.5 |
| 20260902043536 | 60 | 184 | 1.0 | 4.0 | 0.00 | 0.00 | 0.00 | 88 | 1015.5 |
| 20260902043101 | 60 | 175 | 1.0 | 4.0 | 0.00 | 0.00 | 0.00 | 88 | 1015.4 |
| 20260902042538 | 60 | 184 | 2.0 | 4.0 | 0.00 | 0.00 | 0.00 | 88 | 1015.5 |
| 20260902042038 | 60 | 195 | 0.0 | 5.0 | 0.00 | 0.00 | 0.00 | 88 | 1015.4 |
| 20260902041554 | 60 | 190 | 2.0 | 5.0 | 0.00 | 0.00 | 0.00 | 88 | 1015.4 |
| 20260902041038 | 61 | 196 | 2.0 | 5.0 | 0.00 | 0.00 | 0.00 | 88 | 1015.4 |
| 20260902040537 | 61 | 197 | 2.0 | 7.0 | 0.00 | 0.00 | 0.00 | 88 | 1015.3 |
| 20260902040055 | 61 | 165 | 3.0 | 8.0 | 0.00 | 0.00 | 0.00 | 88 | 1015.3 |
| 20260902035539 | 61 | 200 | 3.0 | 8.0 | 0.00 | 0.00 | 0.00 | 88 | 1015.3 |
| 20260902035037 | 61 | 211 | 4.0 | 8.0 | 0.00 | 0.00 | 0.00 | 88 | 1015.3 |
| 20260902034607 | 61 | 192 | 2.0 | 7.0 | 0.00 | 0.00 | 0.00 | 88 | 1015.2 |
| 20260902034038 | 61 | 184 | 2.0 | 7.0 | 0.00 | 0.00 | 0.00 | 87 | 1015.2 |
| 20260902033539 | 61 | 161 | 3.0 | 5.0 | 0.00 | 0.00 | 0.00 | 87 | 1015.2 |
| 20260902033101 | 61 | 197 | 3.0 | 5.0 | 0.00 | 0.00 | 0.00 | 87 | 1015.2 |
| 20260902032537 | 61 | 205 | 2.0 | 6.0 | 0.00 | 0.00 | 0.00 | 87 | 1015.2 |
| 20260902032038 | 61 | 183 | 2.0 | 6.0 | 0.00 | 0.00 | 0.00 | 87 | 1015.2 |
| 20260902031558 | 61 | 198 | 3.0 | 6.0 | 0.00 | 0.00 | 0.00 | 87 | 1015.1 |
| 20260902031038 | 61 | 239 | 3.0 | 6.0 | 0.00 | 0.00 | 0.00 | 87 | 1015.0 |
| 20260902030540 | 61 | 186 | 3.0 | 6.0 | 0.00 | 0.00 | 0.00 | 87 | 1015.2 |
| 20260902025537 | 61 | 223 | 2.0 | 6.0 | 0.00 | 0.00 | 0.00 | 87 | 1015.0 |
| 20260902025038 | 61 | 211 | 2.0 | 6.0 | 0.00 | 0.00 | 0.00 | 87 | 1015.0 |
| 20260902024550 | 62 | 212 | 3.0 | 9.0 | 0.00 | 0.00 | 0.00 | 87 | 1015.0 |
| 20260902024037 | 62 | 217 | 2.0 | 9.0 | 0.00 | 0.00 | 0.00 | 86 | 1015.0 |
| 20260902023536 | 62 | 200 | 4.0 | 8.0 | 0.00 | 0.00 | 0.00 | 86 | 1014.9 |
| 20260902023048 | 62 | 165 | 3.0 | 9.0 | 0.00 | 0.00 | 0.00 | 86 | 1015.0 |
| 20260902022538 | 62 | 179 | 4.0 | 9.0 | 0.00 | 0.00 | 0.00 | 86 | 1015.0 |
| 20260902022038 | 62 | 222 | 4.0 | 8.0 | 0.00 | 0.00 | 0.00 | 85 | 1015.1 |
| 20260902021608 | 62 | 158 | 4.0 | 8.0 | 0.00 | 0.00 | 0.00 | 85 | 1015.1 |
| 20260902021038 | 62 | 203 | 4.0 | 8.0 | 0.00 | 0.00 | 0.00 | 85 | 1015.0 |
| 20260902020541 | 62 | 251 | 4.0 | 8.0 | 0.00 | 0.00 | 0.00 | 85 | 1015.0 |
| 20260902020050 | 63 | 195 | 4.0 | 8.0 | 0.00 | 0.00 | 0.00 | 84 | 1015.0 |
| 20260902015537 | 63 | 244 | 5.0 | 9.0 | 0.00 | 0.00 | 0.00 | 84 | 1015.0 |
| 20260902015038 | 63 | 229 | 4.0 | 9.0 | 0.00 | 0.00 | 0.00 | 83 | 1015.0 |
| 20260902014552 | 63 | 199 | 4.0 | 9.0 | 0.00 | 0.00 | 0.00 | 83 | 1015.0 |
| 20260902014041 | 63 | 221 | 5.0 | 10.0 | 0.00 | 0.00 | 0.00 | 83 | 1015.0 |
| 20260902013539 | 63 | 222 | 5.0 | 10.0 | 0.00 | 0.00 | 0.00 | 83 | 1015.0 |
| 20260902013048 | 63 | 214 | 5.0 | 10.0 | 0.00 | 0.00 | 0.00 | 83 | 1015.0 |
| 20260902012537 | 63 | 185 | 5.0 | 9.0 | 0.00 | 0.00 | 0.00 | 82 | 1014.9 |
| 20260902012037 | 64 | 212 | 4.0 | 9.0 | 0.00 | 0.00 | 0.00 | 81 | 1014.9 |
| 20260902011555 | 64 | 221 | 4.0 | 9.0 | 0.00 | 0.00 | 0.00 | 81 | 1014.9 |
| 20260902011038 | 64 | 207 | 4.0 | 9.0 | 0.00 | 0.00 | 0.00 | 79 | 1014.9 |
| 20260902010537 | 64 | 208 | 4.0 | 9.0 | 0.00 | 0.00 | 0.00 | 79 | 1014.9 |
| 20260902010057 | 64 | 230 | 4.0 | 9.0 | 0.00 | 0.00 | 0.00 | 79 | 1014.9 |
| 20260902005537 | 64 | 217 | 3.0 | 8.0 | 0.00 | 0.00 | 0.00 | 78 | 1014.8 |
| 20260902005037 | 64 | 200 | 4.0 | 8.0 | 0.00 | 0.00 | 0.00 | 78 | 1014.9 |
| 20260902004552 | 64 | 220 | 3.0 | 8.0 | 0.00 | 0.00 | 0.00 | 78 | 1015.0 |
| 20260902004038 | 64 | 217 | 5.0 | 8.0 | 0.00 | 0.00 | 0.00 | 78 | 1014.8 |
| 20260902003537 | 64 | 215 | 4.0 | 8.0 | 0.00 | 0.00 | 0.00 | 78 | 1014.7 |
| 20260902003048 | 65 | 194 | 4.0 | 9.0 | 0.00 | 0.00 | 0.00 | 76 | 1014.8 |
| 20260902002538 | 65 | 200 | 5.0 | 10.0 | 0.00 | 0.00 | 0.00 | 76 | 1014.8 |
| 20260902002037 | 65 | 223 | 4.0 | 10.0 | 0.00 | 0.00 | 0.00 | 76 | 1014.9 |
| 20260902001550 | 65 | 264 | 3.0 | 9.0 | 0.00 | 0.00 | 0.00 | 75 | 1014.9 |
| 20260902001037 | 65 | 188 | 4.0 | 9.0 | 0.00 | 0.00 | 0.00 | 74 | 1014.9 |
| 20260902000537 | 65 | 239 | 4.0 | 9.0 | 0.00 | 0.00 | 0.00 | 73 | 1014.9 |
| 20260902000101 | 65 | 213 | 5.0 | 9.0 | 0.00 | 0.00 | 0.00 | 76 | 1015.0 |
| 20260901235538 | 66 | 208 | 3.0 | 9.0 | 0.00 | 0.00 | 0.00 | 76 | 1015.0 |
| 20260901235037 | 66 | 209 | 4.0 | 9.0 | 0.00 | 0.00 | 0.00 | 74 | 1015.0 |
| 20260901234556 | 66 | 174 | 4.0 | 7.0 | 0.00 | 0.00 | 0.00 | 77 | 1015.1 |
| 20260901234038 | 65 | 197 | 4.0 | 8.0 | 0.00 | 0.00 | 0.00 | 76 | 1015.0 |
| 20260901233537 | 65 | 247 | 4.0 | 9.0 | 0.00 | 0.00 | 0.00 | 78 | 1015.1 |
| 20260901233100 | 65 | 231 | 5.0 | 10.0 | 0.00 | 0.00 | 0.00 | 81 | 1015.1 |
| 20260901232537 | 65 | 219 | 5.0 | 10.0 | 0.00 | 0.00 | 0.00 | 83 | 1015.2 |
| 20260901232040 | 65 | 198 | 4.0 | 8.0 | 0.00 | 0.00 | 0.00 | 83 | 1015.2 |
| 20260901231554 | 65 | 212 | 4.0 | 8.0 | 0.00 | 0.00 | 0.00 | 84 | 1015.3 |
| 20260901231037 | 65 | 225 | 3.0 | 8.0 | 0.00 | 0.00 | 0.00 | 84 | 1015.3 |
| 20260901230537 | 65 | 214 | 4.0 | 9.0 | 0.00 | 0.00 | 0.00 | 84 | 1015.4 |
| 20260901230054 | 64 | 227 | 4.0 | 9.0 | 0.00 | 0.00 | 0.00 | 84 | 1015.4 |